Location: Crescent
(42.8242°N, 73.7329°W)
Time: 08:13:49
(UTC+00:00)

Vanguard 1 Rocket - Pass Details

Date: 21 February 2026
Orbit: 653 x 4214 km, 34.3° (Epoch: 12 March)

Event Time Altitude Azimuth Distance (km) Brightness Sun altitude
Rises 02:09:32 0° 273° (W) 7,492 12.8 -39.6°
Reaches altitude 10° 02:19:41 10° 250° (WSW) 7,084 12.3 -41.2°
Maximum altitude 02:27:49 13° 230° (SW) 7,106 12.0 -42.5°
Drops below altitude 10° 02:36:24 10° 210° (SSW) 7,399 11.9 -43.8°
Sets 02:48:13 0° 187° (S) 8,120 12.0 -45.6°
